Location: Newark
(41.8083°N, 72.2500°W)
Time: 20:51:02
(UTC+00:00)

Courier 1B - Pass Details

Date: 04 December 2021
Orbit: 962 x 1209 km, 28.3° (Epoch: 19 January)

Event Time Altitude Azimuth Distance (km) Brightness Sun altitude
Rises 22:41:07 0° 245° (WSW) 4,010 12.5 -15.0°
Reaches altitude 10° 22:44:25 10° 234° (SW) 3,012 11.2 -15.6°
Maximum altitude 22:50:26 27° 179° (S) 1,943 9.2 -16.6°
Enters shadow 22:56:03 10° 125° (SE) 2,829 9.5 -17.7°
Drops below altitude 10° 22:56:10 10° 124° (SE) 2,860 - -17.7°
Sets 22:59:13 0° 113° (ESE) 3,773 - -18.2°
